Regional Weather Roundup
Issued by NWS

Home | Current Version | Previous Version | Graphics & Text | Print | Product List | Glossary On
Versions: 1 2 3 4 5 6 7 8 9 10 11 12 13 14 15 16 17 18 19 20 21 22 23 24 25 26 27 28 29 30 31 32 33 34 35 36 37 38 39 40 41 42 43 44 45 46 47 48 49 50
000
ASUS45 KCYS 211710
RWRWY

WYOMING REGIONAL WEATHER ROUNDUP
NATIONAL WEATHER SERVICE CHEYENNE WY
1100 AM MDT MON JUL 21 2014

NOTE:  "FAIR" INDICATES FEW OR NO CLOUDS BELOW 12,000 FEET
WITH NO SIGNIFICANT WEATHER AND/OR OBSTRUCTIONS TO VISIBILITY.

WYZ001-211800-
YELLOWSTONE NATIONAL PARK

CITY           SKY/WX    TMP DP  RH WIND       PRES   REMARKS
LK YELLOWSTONE   N/A     63  46  54 VRB7      30.29R
W YELLOWSTONE  NOT AVBL

$$
WYZ002>013-054>058-071-098>099-211800-
NORTHERN WYOMING

CITY           SKY/WX    TMP DP  RH WIND       PRES   REMARKS
JACKSON        MOSUNNY   75  45  33 CALM      30.20R
CODY           PTSUNNY  N/A N/A N/A SW5       30.02S
GREYBULL       MOSUNNY   85  50  29 NE5       29.96S
WORLAND        PTSUNNY   88  46  23 NE6       29.97S
SHERIDAN       CLOUDY    76  56  49 CALM      29.96S
BUFFALO        MOSUNNY   84  44  24 N6        30.03F
GILLETTE       MOSUNNY   87  47  24 W14G23    29.98R
HULETT         FAIR      77  50  38 MISG      29.98
NEWCASTLE      FAIR      88  39  18 NW15      29.98

$$
WYZ014>020-022>026-101>103-211800-
CENTRAL WYOMING

CITY           SKY/WX    TMP DP  RH WIND       PRES   REMARKS
BIG PINEY      SUNNY     75  43  31 S8        30.26S
PINEDALE       SUNNY     72  43  35 CALM      30.27S
DUBOIS         FAIR      72  37  28 NW26G35   30.21R
LANDER         SUNNY     85  40  20 S6        30.07F
RIVERTON       MOSUNNY   83  42  23 E8        30.10S
CASPER         SUNNY     86  42  21 SW16G28   30.10S
DOUGLAS        SUNNY     89  46  22 W17       30.08R

$$
WYZ021-027>030-104>119-211800-
SOUTHERN WYOMING

CITY           SKY/WX    TMP DP  RH WIND       PRES   REMARKS
EVANSTON       SUNNY     72  42  34 SW16G23   30.31R
KEMMERER       SUNNY     72  37  28 SW17G24   30.30S
FORT BRIDGER   FAIR      78  34  20 SW20G28   30.31S
ROCK SPRINGS   SUNNY     79  34  19 W13       30.26S
DIXON          FAIR      83  39  21 W12G18    30.29S
RAWLINS        SUNNY     81  37  20 W16G24    30.25S
SARATOGA       FAIR      81  37  21 W15G21    30.29S
LARAMIE        SUNNY     80  39  23 W22       30.28R
CHEYENNE       MOSUNNY   86  43  22 W10       30.21R
TORRINGTON     SUNNY     91  51  25 N7        30.02S
PINE BLUFFS    FAIR      90  41  18 W9G16     30.13S

$$


USA.gov is the U.S. government's official web portal to all federal, state and local government web resources and services.